Regional Weather Roundup
Issued by NWS

Home | Current Version | Previous Version | Graphics & Text | Print | Product List | Glossary On
Versions: 1 2 3 4 5 6 7 8 9 10 11 12 13 14 15 16 17 18 19 20 21 22 23 24 25 26 27 28 29 30 31 32 33 34 35 36 37 38 39 40 41 42 43 44 45 46 47 48 49 50
000
ASUS43 KBIS 241702
RWRND

NORTH DAKOTA REGIONAL WEATHER ROUNDUP
NATIONAL WEATHER SERVICE BISMARCK ND
1200 PM CDT SAT SEP 24 2016

NOTE: "FAIR" INDICATES FEW OR NO CLOUDS BELOW 12,000 FEET WITH NO
SIGNIFICANT WEATHER AND/OR OBSTRUCTIONS TO VISIBILITY.


NDZ001>003-009>011-017-241800-
NORTHWEST NORTH DAKOTA

CITY           SKY/WX    TMP DP  RH WIND       PRES   REMARKS
WILLISTON      CLOUDY    57  54  89 N13       29.76S
MINOT          MOSUNNY   70  66  87 E10       29.72F
MINOT AFB      CLOUDY    67  66  97 SE10      29.72F
$$

NDZ018>021-031>035-040>046-241800-
SOUTHWEST NORTH DAKOTA

CITY           SKY/WX    TMP DP  RH WIND       PRES   REMARKS
BISMARCK       CLOUDY    74  64  71 S23G31    29.72F
DICKINSON      CLOUDY    60  60 100 E7        29.68F FOG
GARRISON         N/A     72  66  81 SE12G17   29.71F
HETTINGER ARPT PTSUNNY   63  58  83 S15       29.72S
$$

NDZ004>008-012>016-024-026-027-054-241800-
NORTHEAST NORTH DAKOTA

CITY           SKY/WX    TMP DP  RH WIND       PRES   REMARKS
GRAND FORKS    CLOUDY    71  65  81 SE16      29.86S
GRND FRKS AFB  CLOUDY    70  66  89 S16G24    29.86S
DEVILS LAKE    CLOUDY    69  66  90 SE13      29.81S
$$

NDZ022-023-025-028>030-036>039-047>053-241800-
SOUTHEAST NORTH DAKOTA

CITY           SKY/WX    TMP DP  RH WIND       PRES   REMARKS
FARGO          PTSUNNY   77  65  66 SE16G30   29.87S
JAMESTOWN      CLOUDY    74  66  76 SE15G24   29.80S
$$




USA.gov is the U.S. government's official web portal to all federal, state and local government web resources and services.